Location: Astronomy Club of Akron Observatory
(40.9700°N, 81.5606°W)
Time: 18:48:01
(UTC-04:00)

Daily predictions for brighter satellites

Satellite Brightness Start Highest point End
(mag) Time Altitude Azimuth Time Altitude Azimuth Time Altitude Azimuth
Meteor 2-3 Rocket 3.9 21:13:34 10° S 21:19:09 58° E 21:24:43 10° NNE
Cosmos 2082 Rocket 3.7 21:15:25 10° NW 21:20:30 35° WSW 21:25:36 10° S
SJ-11-01 4.4 21:16:28 10° SSE 21:21:06 60° ENE 21:25:45 10° N
Cosmos 1408 4.4 21:19:03 10° SE 21:21:21 16° E 21:23:38 10° NE
Meteor 1-26 Rocket 4.3 21:15:47 10° N 21:21:26 74° E 21:27:11 10° SSE
Cosmos 1782 4.3 21:22:48 10° NNE 21:25:56 22° ENE 21:29:02 10° SE
ERS-1 Rocket 3.9 21:24:09 10° SE 21:28:36 33° ENE 21:33:04 10° N
Cosmos 1833 Rocket 4.4 21:24:34 10° NW 21:29:28 31° WSW 21:34:19 10° SSW
NOSS 3-2 (A) 4.1 21:23:49 10° SW 21:29:45 63° NW 21:36:20 10° NNE
Cosmos 2344 4.4 21:24:43 10° SSE 21:30:58 28° ESE 21:37:29 10° NE
Cosmos 1825 3.6 21:28:45 10° SE 21:31:32 20° E 21:34:19 10° NE
Cosmos 1869 Rocket 4.1 21:28:59 10° SSE 21:32:59 38° E 21:37:02 10° NNE
Spot 2 Rocket 4.4 21:29:02 10° S 21:33:58 50° W 21:38:57 10° NNW
BREEZE-M DEB (TANK) 3.9 21:31:45 10° NW 21:34:16 31° NNE 21:41:02 10° E
Helios 1B rocket 2.5 21:33:23 10° NNE 21:37:27 58° ESE 21:41:29 10° S
Cosmos 2084 3.5 21:34:02 10° NNW 21:37:47 54° NE 21:41:16 13° SE
USA 215 3.8 21:35:35 10° ESE 21:41:52 50° NNE 21:48:10 10° NW
Lacrosse 4 Rocket 3.1 21:42:35 10° N 21:46:14 24° NE 21:49:28 12° ESE
Cosmos 1892 3.4 21:44:42 10° SSW 21:48:29 57° W 21:52:16 10° N
Cosmos 2221 Rocket 3.8 21:44:33 10° N 21:48:53 51° E 21:52:52 12° SSE
USA 186 4.2 21:48:05 10° SW 21:50:01 18° W 21:52:03 10° NW
NOSS 3-2 (C) 4.1 21:44:33 10° SW 21:50:29 60° NW 21:57:03 10° NNE
ISS -3.6 21:48:23 10° WSW 21:51:37 71° NW 21:54:52 10° NE
Cosmos 1943 Rocket 2.5 21:47:18 10° S 21:52:33 43° ESE 21:57:47 10° NE
Terra 3.9 21:54:57 10° E 21:56:44 12° ENE 21:58:32 10° NE
Cosmos 1634 Rocket 4.1 21:52:53 10° N 21:59:12 89° WSW 22:05:32 10° S
Envisat 4.2 21:56:16 10° SSW 22:01:01 40° W 22:05:49 10° NNW
Tiangong 2 2.1 21:58:50 10° W 22:01:48 34° SSW 22:03:24 21° SSE
Cosmos 2263 4.2 21:56:15 10° SSW 22:01:58 67° ESE 22:07:40 10° NNE
NOAA 11 4.2 21:58:58 12° SSE 22:03:58 71° ENE 22:09:26 10° N
CENTAUR R/B 2.4 21:58:54 10° SSW 22:04:46 65° ESE 22:11:27 10° NE
Cosmos 372 Rocket 4.1 22:00:38 10° S 22:05:36 52° ESE 22:10:33 10° NNE
Cosmos 1340 3.3 22:03:21 10° N 22:06:54 37° ENE 22:08:45 23° SE
Molniya-1 3.9 22:06:53 10° WSW 22:08:30 34° NW 22:10:00 10° NNE
BREEZE M DEB (TANK) 4.3 21:53:02 10° SW 22:08:45 76° SSE 22:12:58 10° ENE
COSMOS 2455 3.2 22:04:23 10° SW 22:10:22 69° WNW 22:16:24 10° NNE
Helios 1A 3.9 22:06:30 10° S 22:10:31 46° W 22:14:36 10° NNW
Cosmos 1269 Rocket 4.3 22:06:20 10° N 22:11:32 55° ENE 22:14:56 21° SE
SPOT 5 3.5 22:08:10 19° SE 22:11:49 48° ENE 22:16:53 10° N
CZ-4B DEB 3.4 22:09:44 13° S 22:12:10 46° W 22:15:01 10° NNW
Cosmos 2369 Rocket 2.5 22:08:29 10° SSW 22:14:07 71° WNW 22:19:49 10° NNE
Cosmos 1125 Rocket 3.4 22:10:51 10° SSW 22:16:05 79° ESE 22:21:20 10° NNE
Resurs 01 Rocket 4.4 22:15:42 10° WSW 22:17:50 13° W 22:19:59 10° WNW
SAR-Lupe-4 4.2 22:17:05 14° S 22:19:58 52° W 22:23:29 10° NNW
Cosmos 1606 2.6 22:17:41 10° N 22:21:30 90° SSE 22:23:47 23° S
Lacrosse 5 rocket 2.0 22:20:45 10° WSW 22:24:14 48° NW 22:27:48 10° NE
Shenzhou-11 Module 4.0 22:22:59 10° WSW 22:25:08 18° SSW 22:25:36 17° SSW
Cosmos 2279 Rocket 4.0 22:26:44 10° N 22:33:01 83° W 22:38:02 17° S
ATLAS 5 CENTAUR R/B 2.4 22:31:26 10° NNW 22:37:29 81° NE 22:41:08 28° SE
Okean 1-7 4.1 22:35:01 10° NNW 22:39:12 43° W 22:42:46 13° SSW
MetOp-B 4.3 22:35:41 19° S 22:39:34 70° WSW 22:44:55 10° NNW
Meteor 1-27 Rocket 3.7 22:34:21 10° N 22:40:08 77° E 22:43:17 27° SSE
GPS 2-04 Rocket1 3.5 22:39:04 10° WSW 22:42:02 29° SSW 22:42:02 29° SSW
H-2A R/B 2.1 22:42:09 29° SSE 22:44:57 74° ENE 22:50:17 10° N
Intercosmos 25 Rocket 4.3 22:41:31 10° N 22:48:50 64° ENE 22:50:46 36° SE
Cosmos 158 Rocket 4.2 22:45:28 10° NNW 22:50:15 57° WSW 22:52:45 27° S
ARGOS 3.4 22:47:36 23° S 22:50:59 66° WSW 22:56:21 10° NNW
Cosmos 1656 Rocket 3.6 22:48:00 24° S 22:51:09 59° ESE 22:56:35 10° NNE
Cosmos 1408 4.5 22:52:54 10° SW 22:56:11 30° WNW 22:59:32 10° NNW
Cosmos 1733 Rocket 3.1 23:01:46 33° SSW 23:03:38 74° W 23:07:59 10° N
Cosmos 1825 4.3 23:03:49 10° SW 23:06:57 24° WNW 23:10:06 10° NNW
SL-08 RB Rocket 4.4 23:07:02 29° SSW 23:09:07 49° W 23:13:40 10° NNW
Nimbus 7 Rocket 4.4 23:05:21 10° NNE 23:11:16 81° WNW 23:15:18 21° SSW
Sich 1 Rocket 3.7 23:12:21 52° E 23:12:29 52° E 23:16:48 10° NNE
Landsat 7 3.8 23:17:28 51° S 23:18:39 79° WSW 23:23:26 10° NNW
Cosmos 2227 Rocket 3.8 23:18:24 10° N 23:22:48 23° NE 23:24:44 19° E
Meteor 2-20 4.4 23:20:24 32° SSW 23:23:26 84° W 23:29:35 10° N
Meteor 1-14 Rocket 4.4 23:22:21 48° SE 23:23:44 61° E 23:29:27 10° NNE
Meteor 2-20 Rocket 4.3 23:22:12 41° S 23:24:27 78° E 23:30:36 10° N
USA 215 3.6 23:22:28 36° S 23:24:49 52° SW 23:31:13 10° NW
Lacrosse 4 Rocket 2.4 23:20:55 10° NW 23:25:05 38° WSW 23:25:48 35° SW
Cosmos 1975 Rocket 3.7 23:23:59 10° N 23:28:04 41° ENE 23:28:04 41° ENE
ISS -0.8 23:26:17 10° WNW 23:28:33 17° NNW 23:30:50 10° NNE
Cosmos 2219 3.3 23:23:20 10° NNW 23:29:05 66° ENE 23:30:23 51° ESE
Cosmos 2026 Rocket 4.0 23:28:05 48° SE 23:29:33 61° E 23:35:42 10° NNE
SL-19 R/B 4.4 23:26:31 10° NNE 23:32:35 69° ESE 23:34:17 48° SSE
Terra 1.7 23:33:08 65° S 23:33:48 79° WSW 23:38:35 10° NNW
Cosmos 1812 3.4 23:30:12 10° N 23:33:20 47° NE 23:33:20 47° NE
ATLAS CENTAUR R/B 2.4 23:36:09 34° NE 23:36:09 34° NE 23:38:28 10° NE
BREEZE-M DEB (TANK) 3.3 23:36:03 54° SE 23:36:04 54° SE 23:47:12 10° ENE
DMSP B5D2-2 4.5 23:31:01 10° N 23:36:09 60° WNW 23:38:33 31° SW
Cosmos 1943 Rocket 4.1 23:31:43 10° WSW 23:36:26 28° NW 23:41:10 10° N
CARTOSAT-1 3.6 23:36:19 68° SW 23:36:33 70° WSW 23:40:53 10° NNW
Cosmos 2251 Rocket 3.4 23:34:57 10° NNW 23:40:13 82° WSW 23:40:56 66° S
Cosmos 1674 Rocket 4.5 23:36:52 10° NNW 23:40:55 39° W 23:41:35 37° WSW
Cosmos 1378 Rocket 3.5 23:37:29 10° NNW 23:41:56 75° W 23:42:02 74° WSW
Cosmos 1437 4.5 23:41:04 10° NNW 23:43:12 31° NW 23:43:12 31° NW
Cosmos 2344 4.2 23:37:11 10° SW 23:44:40 57° NW 23:53:14 10° NNE
SME Rocket 4.4 23:43:24 49° SSE 23:45:31 85° ENE 23:55:00 10° NNW
ARGOS Delta rocket 4.1 23:42:31 10° NNE 23:46:12 49° ENE 23:46:12 49° ENE
CZ-4C R/B 4.2 23:50:08 44° NE 23:50:08 44° NE 23:53:36 10° N
S3M 4.2 23:46:09 10° N 23:52:07 52° E 23:52:56 48° ESE
H-2A R/B 2.2 23:53:59 64° NW 23:53:59 64° NW 23:57:37 10° NNW
Cosmos 405 Rocket 3.6 23:51:16 10° N 23:53:54 44° N 23:53:54 44° N
Okean 1 4.3 23:52:00 10° N 23:54:53 40° NNE 23:54:53 40° NNE
